| time (UTC) | temp F | wind direction | speed MPH | gust MPH | rain 1hr in | rain 24hr in | rain mn in | humidity % | barometer mb |
| 20260504213003 | 69 | 241 | 4.0 | 14.0 | 0.00 | 0.00 | 0.00 | 28 | 1005.6 |
| 20260504211502 | 69 | 229 | 2.0 | 10.0 | 0.00 | 0.00 | 0.00 | 27 | 1005.7 |
| 20260504210002 | 70 | 241 | 5.0 | 14.0 | 0.00 | 0.00 | 0.00 | 27 | 1005.6 |
| 20260504204501 | 70 | 211 | 5.0 | 16.0 | 0.00 | 0.00 | 0.00 | 27 | 1005.6 |
| 20260504203106 | 71 | 197 | 4.0 | 15.0 | 0.00 | 0.00 | 0.00 | 27 | 1005.6 |
| 20260504201559 | 72 | 181 | 6.0 | 14.0 | 0.00 | 0.00 | 0.00 | 26 | 1005.7 |
| 20260504194604 | 71 | 178 | 5.0 | 14.0 | 0.00 | 0.00 | 0.00 | 27 | 1005.7 |
| 20260504193057 | 71 | 261 | 5.0 | 11.0 | 0.00 | 0.00 | 0.00 | 26 | 1005.7 |
| 20260504191609 | 70 | 239 | 8.0 | 21.0 | 0.00 | 0.00 | 0.00 | 26 | 1005.7 |
| 20260504190053 | 71 | 223 | 4.0 | 12.0 | 0.00 | 0.00 | 0.00 | 26 | 1005.9 |
| 20260504184552 | 70 | 211 | 5.0 | 17.0 | 0.00 | 0.00 | 0.00 | 26 | 1006.2 |
| 20260504183053 | 70 | 186 | 4.0 | 18.0 | 0.00 | 0.00 | 0.00 | 25 | 1006.2 |
| 20260504181556 | 69 | 193 | 8.0 | 23.0 | 0.00 | 0.00 | 0.00 | 24 | 1006.2 |
| 20260504180048 | 70 | 330 | 4.0 | 21.0 | 0.00 | 0.00 | 0.00 | 25 | 1006.4 |
| 20260504174545 | 68 | 145 | 9.0 | 19.0 | 0.00 | 0.00 | 0.00 | 28 | 1006.7 |
| 20260504173043 | 68 | 223 | 6.0 | 18.0 | 0.00 | 0.00 | 0.00 | 27 | 1006.7 |
| 20260504171548 | 68 | 194 | 5.0 | 22.0 | 0.00 | 0.00 | 0.00 | 28 | 1006.7 |
| 20260504081535 | 44 | 199 | 1.0 | 5.0 | 0.00 | 0.00 | 0.00 | 56 | 1009.2 |
| 20260504050021 | 40 | 207 | 0.0 | 2.0 | 0.00 | 0.00 | 0.00 | 59 | 1009.3 |
| 20260504044520 | 40 | 209 | 0.0 | 2.0 | 0.00 | 0.00 | 0.00 | 62 | 1009.3 |
| 20260504043016 | 38 | 229 | 0.0 | 2.0 | 0.00 | 0.00 | 0.00 | 64 | 1009.1 |
| 20260504041514 | 37 | 202 | 0.0 | 2.0 | 0.00 | 0.00 | 0.00 | 64 | 1008.9 |
| 20260504040013 | 37 | 221 | 0.0 | 1.0 | 0.00 | 0.00 | 0.00 | 68 | 1008.9 |
| 20260504034509 | 36 | 236 | 0.0 | 2.0 | 0.00 | 0.00 | 0.00 | 73 | 1008.9 |
| 20260504033012 | 36 | 251 | 1.0 | 3.0 | 0.00 | 0.00 | 0.00 | 74 | 1008.8 |
| 20260504031506 | 36 | 225 | 0.0 | 2.0 | 0.00 | 0.00 | 0.00 | 73 | 1008.7 |
| 20260504030008 | 37 | 208 | 0.0 | 2.0 | 0.00 | 0.00 | 0.00 | 69 | 1008.6 |
| 20260504024502 | 37 | 208 | 0.0 | 2.0 | 0.00 | 0.00 | 0.00 | 67 | 1008.6 |
| 20260504023100 | 38 | 208 | 0.0 | 2.0 | 0.00 | 0.00 | 0.00 | 65 | 1008.5 |
| 20260504021558 | 39 | 208 | 0.0 | 2.0 | 0.00 | 0.00 | 0.00 | 64 | 1008.5 |
| 20260504020057 | 40 | 208 | 0.0 | 2.0 | 0.00 | 0.00 | 0.00 | 62 | 1008.4 |
| 20260504014556 | 41 | 208 | 0.0 | 0.0 | 0.00 | 0.00 | 0.00 | 60 | 1008.4 |
| 20260504013113 | 42 | 208 | 0.0 | 2.0 | 0.00 | 0.00 | 0.00 | 57 | 1008.3 |
| 20260504011556 | 42 | 208 | 0.0 | 2.0 | 0.00 | 0.00 | 0.00 | 55 | 1007.9 |
| 20260504010104 | 43 | 208 | 0.0 | 0.0 | 0.00 | 0.00 | 0.00 | 51 | 1007.9 |
| 20260504004607 | 44 | 208 | 0.0 | 0.0 | 0.00 | 0.00 | 0.00 | 48 | 1007.7 |
| 20260504003054 | 45 | 208 | 0.0 | 2.0 | 0.00 | 0.00 | 0.00 | 47 | 1007.5 |
| 20260504001554 | 46 | 208 | 0.0 | 0.0 | 0.00 | 0.00 | 0.00 | 44 | 1007.3 |
| 20260504000104 | 47 | 208 | 0.0 | 2.0 | 0.00 | 0.00 | 0.00 | 43 | 1007.3 |
| 20260503234553 | 48 | 301 | 0.0 | 2.0 | 0.00 | 0.00 | 0.00 | 43 | 1007.3 |
| 20260503233057 | 49 | 254 | 3.0 | 10.0 | 0.00 | 0.00 | 0.00 | 43 | 1007.0 |
| 20260503231553 | 49 | 244 | 0.0 | 7.0 | 0.00 | 0.00 | 0.00 | 43 | 1006.8 |
| 20260503230057 | 50 | 241 | 0.0 | 6.0 | 0.00 | 0.00 | 0.00 | 42 | 1006.8 |
| 20260503224552 | 50 | 303 | 3.0 | 8.0 | 0.00 | 0.00 | 0.00 | 42 | 1006.7 |
| 20260503223051 | 51 | 305 | 2.0 | 7.0 | 0.00 | 0.00 | 0.00 | 39 | 1006.5 |
| 20260503221550 | 53 | 355 | 2.0 | 8.0 | 0.00 | 0.00 | 0.00 | 36 | 1006.3 |
| 20260503220052 | 52 | 42 | 4.0 | 13.0 | 0.00 | 0.00 | 0.00 | 37 | 1006.2 |
| 20260503214549 | 52 | 324 | 2.0 | 9.0 | 0.00 | 0.00 | 0.00 | 38 | 1006.1 |